This is the latest recevied weather packets stored in our database for station/object IZ8XTV-13. If no packets are shown the sender has not sent any weather packets the latest 10 day(s).
| Time | Temp. | Humidity | Pressure | Rain* | Wind** | Luminosity | Snow |
|---|---|---|---|---|---|---|---|
| 1778266467 | 15° C | 99% | 1015.8 hPa | 0 mm | - | - | - |
| 1778265856 | 15° C | 99% | 1015.8 hPa | 0 mm | - | - | - |
| 1778265244 | 15° C | 99% | 1015.7 hPa | 0 mm | - | - | - |
| 1778264633 | 15° C | 99% | 1015.6 hPa | 0 mm | - | - | - |
| 1778264021 | 15° C | 99% | 1015.4 hPa | 0 mm | - | - | - |
| 1778263410 | 15° C | 99% | 1015.2 hPa | 0 mm | - | - | - |
| 1778262798 | 15.56° C | 99% | 1015.2 hPa | 0 mm | - | - | - |
| 1778262186 | 15.56° C | 99% | 1015.1 hPa | 0 mm | - | - | - |
| 1778261573 | 15.56° C | 99% | 1014.9 hPa | 0 mm | - | - | - |
| 1778260961 | 16.11° C | 99% | 1014.9 hPa | 0 mm | - | - | - |
| 1778260349 | 15.56° C | 99% | 1014.7 hPa | 0 mm | - | - | - |
| 1778259737 | 16.11° C | 99% | 1014.6 hPa | 0 mm | - | - | - |
| 1778259124 | 16.67° C | 99% | 1014.4 hPa | 0 mm | - | - | - |
| 1778258512 | 16.11° C | 99% | 1014.6 hPa | 0 mm | - | - | - |
| 1778257901 | 16.67° C | 99% | 1014.6 hPa | 0 mm | - | - | - |
| 1778257289 | 16.67° C | 99% | 1014.6 hPa | 0 mm | - | - | - |
| 1778256677 | 16.11° C | 99% | 1014.5 hPa | 0 mm | - | - | - |
| 1778256065 | 16.67° C | 99% | 1014.6 hPa | 0 mm | - | - | - |
| 1778255452 | 16.67° C | 99% | 1014.5 hPa | 0 mm | - | - | - |
| 1778254840 | 16.67° C | 99% | 1014.4 hPa | 0 mm | - | - | - |
| 1778254229 | 16.11° C | 99% | 1014.3 hPa | 0 mm | - | - | - |
| 1778253617 | 16.11° C | 99% | 1014.3 hPa | 0 mm | - | - | - |
| 1778253005 | 16.67° C | 99% | 1014.1 hPa | 0 mm | - | - | - |
| 1778252393 | 17.78° C | 99% | 1013.9 hPa | 0 mm | - | - | - |
| 1778251781 | 18.33° C | 99% | 1013.7 hPa | 0 mm | - | - | - |
* Rain latest hour (hover to see other rain measurements)
** Current wind speed in m/s (hover to see current wind gust speed)